QPF
0.02 0.02 0.02 0.02 0.02 0.01 0.01 0.01 0.01 0.01 0.01 0.01 0.01 0.01 0.01 0.01 0.01 0.01 0.01 0.02 0.02 0.02 0.03 0.04 0.04 0.04 0.03 0.03 0.02 0.02 0.02 0.02 0.02 0.01 0.00 0.00 0.00 0.00 0.01 0.02 0.04 0.05 0.06
0.02 0.03 0.03 0.02 0.03 0.02 0.01 0.01 0.01 0.01 0.01 0.00 0.00 0.01 0.01 0.01 0.01 0.01 0.01 0.01 0.01 0.02 0.02 0.03 0.03 0.03 0.03 0.03 0.02 0.02 0.01 0.01 0.01 0.01 0.01 0.00 0.00 0.00 0.01 0.02 0.03 0.05 0.05
0.02 0.03 0.04 0.04 0.03 0.03 0.03 0.02 0.02 0.02 0.02 0.01 0.01 0.01 0.01 0.01 0.01 0.01 0.01 0.01 0.01 0.01 0.02 0.02 0.02 0.02 0.02 0.02 0.02 0.02 0.01 0.01 0.01 0.02 0.01 0.01 0.01 0.01 0.01 0.02 0.03 0.04 0.05
0.02 0.02 0.03 0.05 0.05 0.04 0.04 0.04 0.04 0.03 0.03 0.03 0.02 0.01 0.01 0.01 0.02 0.01 0.01 0.01 0.01 0.01 0.01 0.01 0.01 0.02 0.02 0.02 0.02 0.02 0.02 0.02 0.02 0.02 0.02 0.02 0.01 0.01 0.01 0.02 0.03 0.04 0.06
0.01 0.02 0.03 0.04 0.05 0.05 0.05 0.05 0.05 0.04 0.04 0.03 0.03 0.02 0.02 0.02 0.03 0.03 0.02 0.01 0.01 0.02 0.01 0.02 0.02 0.02 0.02 0.02 0.02 0.02 0.02 0.02 0.02 0.02 0.02 0.02 0.02 0.02 0.02 0.02 0.04 0.05 0.05
0.01 0.01 0.02 0.04 0.04 0.04 0.05 0.05 0.05 0.05 0.05 0.05 0.04 0.03 0.03 0.03 0.04 0.04 0.03 0.03 0.02 0.02 0.02 0.03 0.02 0.02 0.02 0.02 0.02 0.03 0.03 0.03 0.03 0.03 0.02 0.02 0.02 0.02 0.02 0.02 0.03 0.04 0.06
0.03 0.02 0.01 0.02 0.02 0.03 0.03 0.03 0.03 0.03 0.03 0.03 0.04 0.03 0.03 0.03 0.04 0.04 0.04 0.04 0.03 0.03 0.03 0.03 0.02 0.02 0.02 0.01 0.01 0.01 0.02 0.02 0.02 0.03 0.03 0.02 0.02 0.02 0.02 0.02 0.03 0.04 0.05
0.03 0.03 0.02 0.02 0.01 0.01 0.02 0.02 0.02 0.01 0.01 0.01 0.02 0.02 0.02 0.02 0.03 0.03 0.03 0.03 0.03 0.03 0.03 0.02 0.02 0.02 0.01 0.01 0.01 0.01 0.01 0.01 0.02 0.02 0.02 0.02 0.02 0.02 0.02 0.02 0.03 0.04 0.05
0.03 0.02 0.02 0.02 0.01 0.01 0.01 0.01 0.01 0.01 0.01 0.01 0.01 0.01 0.02 0.02 0.02 0.02 0.03 0.03 0.03 0.03 0.02 0.02 0.02 0.01 0.02 0.02 0.02 0.02 0.02 0.02 0.02 0.02 0.02 0.02 0.02 0.03 0.03 0.03 0.04 0.04 0.05
0.03 0.02 0.02 0.02 0.02 0.02 0.02 0.01 0.01 0.01 0.01 0.01 0.01 0.01 0.01 0.01 0.01 0.02 0.02 0.03 0.04 0.03 0.03 0.02 0.01 0.01 0.01 0.02 0.02 0.02 0.02 0.02 0.02 0.02 0.02 0.02 0.02 0.02 0.03 0.03 0.03 0.04 0.04
0.02 0.02 0.02 0.02 0.01 0.01 0.01 0.01 0.01 0.01 0.01 0.01 0.01 0.01 0.01 0.01 0.01 0.01 0.01 0.02 0.03 0.03 0.03 0.02 0.02 0.02 0.01 0.02 0.02 0.02 0.02 0.02 0.02 0.02 0.02 0.02 0.02 0.01 0.01 0.02 0.03 0.04 0.04
0.01 0.01 0.01 0.01 0.01 0.01 0.01 0.01 0.01 0.01 0.01 0.01 0.01 0.01 0.01 0.01 0.01 0.01 0.01 0.02 0.02 0.02 0.02 0.02 0.02 0.02 0.01 0.01 0.01 0.02 0.02 0.02 0.02 0.02 0.02 0.01 0.01 0.01 0.01 0.01 0.02 0.02 0.03
0.01 0.01 0.01 0.01 0.01 0.01 0.01 0.00 0.00 0.01 0.01 0.01 0.01 0.01 0.01 0.01 0.01 0.01 0.01 0.01 0.01 0.01 0.01 0.01 0.01 0.01 0.01 0.01 0.01 0.01 0.01 0.01 0.01 0.01 0.02 0.01 0.01 0.01 0.01 0.01 0.01 0.01 0.02
0.01 0.01 0.01 0.01 0.01 0.01 0.01 0.00 0.00 0.00 0.01 0.01 0.01 0.01 0.01 0.01 0.01 0.01 0.01 0.01 0.01 0.01 0.01 0.01 0.01 0.01 0.01 0.01 0.01 0.01 0.01 0.01 0.01 0.01 0.01 0.01 0.01 0.01 0.01 0.01 0.01 0.01 0.02
0.01 0.01 0.01 0.01 0.01 0.00 0.00 0.00 0.00 0.00 0.01 0.01 0.01 0.01 0.01 0.02 0.02 0.02 0.02 0.01 0.01 0.01 0.01 0.01 0.01 0.01 0.01 0.01 0.01 0.01 0.01 0.01 0.01 0.01 0.01 0.01 0.01 0.01 0.01 0.01 0.02 0.02 0.02
0.01 0.01 0.01 0.01 0.01 0.00 0.00 0.00 0.00 0.00 0.01 0.01 0.01 0.01 0.02 0.02 0.02 0.02 0.01 0.01 0.01 0.01 0.02 0.02 0.02 0.01 0.01 0.01 0.01 0.01 0.01 0.01 0.01 0.01 0.01 0.01 0.01 0.01 0.01 0.01 0.02 0.02 0.02
0.01 0.01 0.01 0.00 0.00 0.00 0.00 0.00 0.00 0.01 0.01 0.01 0.01 0.02 0.02 0.02 0.01 0.01 0.01 0.01 0.01 0.01 0.01 0.01 0.01 0.01 0.01 0.01 0.01 0.01 0.01 0.01 0.01 0.01 0.01 0.01 0.01 0.01 0.01 0.02 0.02 0.02 0.03
0.00 0.00 0.00 0.00 0.00 0.00 0.00 0.00 0.00 0.00 0.01 0.01 0.01 0.02 0.01 0.01 0.01 0.01 0.00 0.01 0.01 0.00 0.01 0.01 0.01 0.01 0.01 0.01 0.01 0.01 0.01 0.01 0.01 0.01 0.01 0.01 0.01 0.02 0.02 0.02 0.02 0.03 0.03
0.00 0.00 0.00 0.00 0.00 0.00 0.00 0.00 0.00 0.01 0.01 0.01 0.00 0.01 0.01 0.01 0.00 0.00 0.00 0.00 0.00 0.00 0.00 0.00 0.00 0.00 0.00 0.00 0.00 0.00 0.01 0.01 0.01 0.01 0.01 0.01 0.01 0.02 0.02 0.02 0.02 0.02 0.03
0.00 0.00 0.01 0.01 0.01 0.01 0.01 0.01 0.01 0.01 0.01 0.01 0.00 0.00 0.01 0.01 0.00 0.00 0.00 0.00 0.00 0.00 0.00 0.01 0.00 0.01 0.01 0.01 0.00 0.00 0.00 0.00 0.00 0.01 0.01 0.01 0.01 0.02 0.02 0.02 0.02 0.03 0.03
0.00 0.00 0.00 0.00 0.01 0.01 0.01 0.01 0.01 0.01 0.01 0.01 0.01 0.01 0.01 0.01 0.01 0.01 0.00 0.00 0.01 0.01 0.01 0.01 0.01 0.01 0.01 0.01 0.01 0.01 0.01 0.01 0.01 0.01 0.01 0.01 0.02 0.02 0.02 0.03 0.03 0.03 0.03
0.01 0.00 0.00 0.01 0.01 0.01 0.01 0.01 0.01 0.01 0.01 0.01 0.01 0.01 0.01 0.01 0.01 0.01 0.01 0.01 0.01 0.01 0.01 0.01 0.01 0.01 0.01 0.01 0.01 0.01 0.01 0.01 0.01 0.01 0.01 0.01 0.02 0.02 0.02 0.02 0.03 0.03 0.03
0.01 0.01 0.01 0.01 0.01 0.01 0.01 0.01 0.01 0.02 0.01 0.01 0.01 0.01 0.01 0.01 0.01 0.01 0.01 0.01 0.01 0.01 0.01 0.01 0.01 0.01 0.01 0.01 0.01 0.01 0.01 0.01 0.01 0.01 0.02 0.02 0.02 0.02 0.02 0.02 0.02 0.02 0.02
0.01 0.01 0.01 0.01 0.01 0.01 0.01 0.01 0.02 0.02 0.02 0.02 0.02 0.02 0.02 0.02 0.01 0.01 0.00 0.00 0.01 0.01 0.01 0.01 0.01 0.01 0.01 0.01 0.01 0.01 0.01 0.01 0.02 0.02 0.02 0.02 0.02 0.02 0.02 0.02 0.02 0.02 0.02
0.01 0.01 0.01 0.01 0.01 0.01 0.01 0.02 0.02 0.02 0.02 0.02 0.02 0.02 0.02 0.01 0.01 0.01 0.01 0.01 0.01 0.01 0.01 0.01 0.01 0.01 0.01 0.01 0.01 0.01 0.01 0.01 0.02 0.02 0.02 0.02 0.02 0.02 0.02 0.02 0.02 0.02 0.02
0.01 0.01 0.01 0.01 0.01 0.01 0.02 0.02 0.02 0.02 0.02 0.02 0.02 0.02 0.02 0.01 0.01 0.01 0.01 0.01 0.01 0.01 0.01 0.01 0.01 0.01 0.01 0.01 0.01 0.01 0.01 0.01 0.01 0.02 0.02 0.03 0.03 0.02 0.02 0.02 0.02 0.02 0.02
MSLP
1024.89 1025.18 1025.32 1025.32 1025.22 1025.04 1024.84 1024.66 1024.53 1024.45 1024.41 1024.38 1024.33 1024.20 1023.99 1023.67 1023.27 1022.79 1022.29 1021.79 1021.33 1020.91 1020.53 1020.16 1019.77 1019.32 1018.76 1018.07 1017.24 1016.29 1015.25 1014.17 1013.08 1012.04 1011.07 1010.20 1009.40 1008.68 1008.01 1007.37 1006.75 1006.15 1005.59
1024.54 1024.80 1024.91 1024.88 1024.74 1024.52 1024.27 1024.05 1023.88 1023.76 1023.70 1023.65 1023.58 1023.45 1023.25 1022.94 1022.55 1022.08 1021.58 1021.08 1020.60 1020.17 1019.78 1019.40 1019.02 1018.59 1018.07 1017.45 1016.71 1015.87 1014.95 1013.98 1013.00 1012.05 1011.14 1010.29 1009.50 1008.76 1008.03 1007.32 1006.62 1005.94 1005.28
1024.20 1024.42 1024.50 1024.43 1024.24 1023.98 1023.70 1023.44 1023.22 1023.07 1022.97 1022.90 1022.82 1022.69 1022.50 1022.22 1021.85 1021.42 1020.94 1020.45 1019.98 1019.54 1019.13 1018.74 1018.35 1017.93 1017.45 1016.89 1016.24 1015.50 1014.70 1013.85 1012.99 1012.13 1011.28 1010.47 1009.67 1008.89 1008.11 1007.33 1006.55 1005.77 1005.04
1023.85 1024.04 1024.07 1023.97 1023.75 1023.46 1023.14 1022.84 1022.59 1022.39 1022.26 1022.15 1022.06 1021.93 1021.75 1021.50 1021.17 1020.77 1020.34 1019.88 1019.42 1018.98 1018.56 1018.16 1017.76 1017.35 1016.89 1016.39 1015.82 1015.18 1014.50 1013.77 1013.02 1012.25 1011.47 1010.69 1009.89 1009.09 1008.26 1007.41 1006.56 1005.71 1004.91
1023.50 1023.64 1023.63 1023.50 1023.25 1022.94 1022.60 1022.27 1021.99 1021.75 1021.57 1021.43 1021.30 1021.16 1020.99 1020.75 1020.46 1020.11 1019.71 1019.29 1018.85 1018.43 1018.01 1017.61 1017.21 1016.80 1016.37 1015.91 1015.42 1014.88 1014.30 1013.69 1013.04 1012.37 1011.66 1010.92 1010.14 1009.32 1008.47 1007.59 1006.70 1005.82 1004.98
1023.13 1023.21 1023.16 1023.00 1022.75 1022.43 1022.08 1021.74 1021.43 1021.15 1020.93 1020.74 1020.57 1020.39 1020.20 1019.97 1019.70 1019.38 1019.02 1018.63 1018.23 1017.83 1017.43 1017.03 1016.63 1016.24 1015.84 1015.43 1015.00 1014.55 1014.07 1013.56 1013.02 1012.44 1011.81 1011.13 1010.38 1009.59 1008.75 1007.88 1006.99 1006.12 1005.29
1022.72 1022.73 1022.65 1022.47 1022.22 1021.91 1021.57 1021.22 1020.89 1020.59 1020.32 1020.07 1019.84 1019.62 1019.39 1019.14 1018.87 1018.56 1018.24 1017.89 1017.52 1017.14 1016.76 1016.38 1016.00 1015.63 1015.26 1014.89 1014.52 1014.15 1013.77 1013.36 1012.92 1012.44 1011.89 1011.28 1010.61 1009.87 1009.08 1008.27 1007.44 1006.62 1005.85
1022.24 1022.19 1022.07 1021.88 1021.63 1021.35 1021.03 1020.70 1020.36 1020.04 1019.72 1019.41 1019.12 1018.84 1018.56 1018.27 1017.98 1017.68 1017.37 1017.04 1016.71 1016.36 1016.01 1015.65 1015.30 1014.95 1014.61 1014.29 1013.98 1013.69 1013.38 1013.07 1012.73 1012.34 1011.89 1011.37 1010.79 1010.14 1009.45 1008.73 1008.00 1007.29 1006.61
1021.69 1021.56 1021.40 1021.21 1020.98 1020.72 1020.44 1020.13 1019.80 1019.46 1019.11 1018.76 1018.40 1018.05 1017.71 1017.39 1017.07 1016.75 1016.45 1016.14 1015.83 1015.52 1015.20 1014.87 1014.55 1014.23 1013.93 1013.65 1013.40 1013.16 1012.93 1012.70 1012.45 1012.15 1011.80 1011.39 1010.91 1010.38 1009.80 1009.21 1008.61 1008.03 1007.48
1021.05 1020.86 1020.66 1020.46 1020.25 1020.02 1019.78 1019.50 1019.19 1018.85 1018.48 1018.08 1017.68 1017.27 1016.88 1016.51 1016.16 1015.84 1015.53 1015.24 1014.95 1014.67 1014.38 1014.09 1013.80 1013.52 1013.25 1013.01 1012.80 1012.62 1012.45 1012.29 1012.11 1011.90 1011.64 1011.33 1010.96 1010.54 1010.10 1009.64 1009.19 1008.75 1008.34
1020.36 1020.10 1019.87 1019.66 1019.46 1019.26 1019.05 1018.80 1018.51 1018.18 1017.80 1017.38 1016.95 1016.51 1016.08 1015.67 1015.30 1014.97 1014.67 1014.39 1014.13 1013.87 1013.61 1013.35 1013.09 1012.84 1012.61 1012.40 1012.23 1012.08 1011.96 1011.85 1011.74 1011.60 1011.42 1011.19 1010.93 1010.62 1010.30 1009.97 1009.65 1009.35 1009.08
1019.64 1019.34 1019.07 1018.84 1018.65 1018.46 1018.27 1018.05 1017.78 1017.45 1017.08 1016.66 1016.20 1015.75 1015.30 1014.88 1014.51 1014.17 1013.88 1013.62 1013.38 1013.15 1012.92 1012.68 1012.45 1012.23 1012.02 1011.84 1011.69 1011.58 1011.49 1011.42 1011.35 1011.27 1011.16 1011.01 1010.82 1010.61 1010.38 1010.16 1009.95 1009.77 1009.62
1018.95 1018.60 1018.31 1018.06 1017.85 1017.67 1017.48 1017.26 1017.00 1016.69 1016.32 1015.90 1015.45 1014.99 1014.55 1014.14 1013.77 1013.45 1013.17 1012.93 1012.71 1012.50 1012.30 1012.09 1011.88 1011.67 1011.48 1011.32 1011.19 1011.10 1011.04 1011.00 1010.97 1010.93 1010.86 1010.77 1010.65 1010.51 1010.36 1010.22 1010.10 1010.00 1009.94
1018.32 1017.95 1017.62 1017.35 1017.12 1016.91 1016.70 1016.47 1016.21 1015.89 1015.52 1015.12 1014.68 1014.24 1013.81 1013.41 1013.06 1012.76 1012.51 1012.29 1012.09 1011.90 1011.71 1011.52 1011.33 1011.14 1010.97 1010.82 1010.71 1010.64 1010.60 1010.59 1010.58 1010.58 1010.56 1010.51 1010.44 1010.35 1010.26 1010.17 1010.11 1010.08 1010.09
1017.77 1017.39 1017.03 1016.73 1016.46 1016.21 1015.97 1015.71 1015.42 1015.09 1014.72 1014.31 1013.89 1013.46 1013.06 1012.69 1012.37 1012.09 1011.85 1011.65 1011.48 1011.30 1011.13 1010.95 1010.77 1010.60 1010.44 1010.31 1010.21 1010.16 1010.15 1010.16 1010.19 1010.22 1010.24 1010.24 1010.22 1010.18 1010.13 1010.09 1010.06 1010.07 1010.12
1017.28 1016.89 1016.52 1016.17 1015.86 1015.56 1015.27 1014.97 1014.64 1014.29 1013.90 1013.50 1013.08 1012.68 1012.29 1011.95 1011.65 1011.39 1011.18 1011.00 1010.83 1010.67 1010.51 1010.34 1010.17 1010.01 1009.87 1009.76 1009.69 1009.66 1009.68 1009.73 1009.80 1009.87 1009.94 1009.99 1010.02 1010.02 1010.01 1010.01 1010.02 1010.05 1010.12
1016.80 1016.40 1016.02 1015.64 1015.29 1014.94 1014.60 1014.25 1013.88 1013.50 1013.10 1012.69 1012.28 1011.88 1011.52 1011.19 1010.91 1010.68 1010.48 1010.31 1010.15 1010.00 1009.85 1009.69 1009.53 1009.39 1009.27 1009.18 1009.13 1009.14 1009.19 1009.29 1009.40 1009.53 1009.66 1009.76 1009.84 1009.90 1009.94 1009.97 1010.01 1010.07 1010.15
1016.24 1015.85 1015.46 1015.07 1014.69 1014.31 1013.93 1013.54 1013.14 1012.73 1012.32 1011.90 1011.50 1011.11 1010.76 1010.45 1010.19 1009.96 1009.77 1009.61 1009.46 1009.32 1009.17 1009.03 1008.88 1008.76 1008.66 1008.59 1008.58 1008.62 1008.72 1008.85 1009.02 1009.21 1009.39 1009.55 1009.70 1009.81 1009.90 1009.98 1010.05 1010.13 1010.22
1015.53 1015.17 1014.79 1014.40 1014.02 1013.62 1013.23 1012.82 1012.41 1011.99 1011.58 1011.16 1010.77 1010.40 1010.06 1009.76 1009.51 1009.29 1009.11 1008.95 1008.80 1008.67 1008.53 1008.39 1008.27 1008.16 1008.08 1008.05 1008.06 1008.14 1008.27 1008.44 1008.66 1008.89 1009.12 1009.35 1009.55 1009.72 1009.86 1009.98 1010.09 1010.20 1010.30
1014.64 1014.31 1013.97 1013.61 1013.24 1012.87 1012.49 1012.10 1011.70 1011.30 1010.89 1010.50 1010.12 1009.77 1009.44 1009.16 1008.92 1008.71 1008.53 1008.37 1008.23 1008.10 1007.97 1007.84 1007.73 1007.64 1007.58 1007.57 1007.61 1007.71 1007.86 1008.06 1008.30 1008.57 1008.84 1009.11 1009.36 1009.58 1009.77 1009.93 1010.08 1010.21 1010.33
1013.59 1013.30 1013.01 1012.70 1012.39 1012.06 1011.72 1011.38 1011.02 1010.65 1010.28 1009.91 1009.57 1009.24 1008.93 1008.67 1008.43 1008.23 1008.05 1007.90 1007.76 1007.63 1007.51 1007.40 1007.30 1007.22 1007.18 1007.18 1007.23 1007.33 1007.50 1007.71 1007.96 1008.23 1008.52 1008.81 1009.08 1009.33 1009.56 1009.76 1009.94 1010.10 1010.24
1012.44 1012.20 1011.97 1011.73 1011.48 1011.22 1010.95 1010.67 1010.36 1010.05 1009.73 1009.41 1009.10 1008.80 1008.52 1008.27 1008.04 1007.84 1007.67 1007.52 1007.38 1007.26 1007.14 1007.04 1006.95 1006.88 1006.85 1006.85 1006.90 1007.00 1007.15 1007.35 1007.59 1007.85 1008.14 1008.42 1008.70 1008.97 1009.22 1009.45 1009.65 1009.84 1010.00
1011.28 1011.10 1010.93 1010.76 1010.59 1010.40 1010.21 1009.99 1009.75 1009.49 1009.22 1008.95 1008.67 1008.40 1008.15 1007.91 1007.69 1007.50 1007.33 1007.17 1007.04 1006.91 1006.80 1006.71 1006.63 1006.57 1006.54 1006.54 1006.59 1006.68 1006.81 1006.98 1007.19 1007.43 1007.68 1007.95 1008.22 1008.48 1008.74 1008.98 1009.21 1009.42 1009.61
1010.24 1010.11 1010.00 1009.88 1009.77 1009.65 1009.50 1009.34 1009.16 1008.95 1008.73 1008.48 1008.24 1007.99 1007.75 1007.51 1007.30 1007.10 1006.93 1006.77 1006.63 1006.51 1006.41 1006.32 1006.25 1006.21 1006.18 1006.19 1006.23 1006.31 1006.42 1006.57 1006.75 1006.95 1007.18 1007.41 1007.66 1007.92 1008.17 1008.42 1008.67 1008.91 1009.13
1009.41 1009.31 1009.22 1009.14 1009.06 1008.97 1008.86 1008.73 1008.57 1008.39 1008.19 1007.96 1007.73 1007.48 1007.24 1007.00 1006.78 1006.58 1006.39 1006.23 1006.09 1005.97 1005.88 1005.80 1005.75 1005.72 1005.72 1005.74 1005.80 1005.87 1005.98 1006.11 1006.27 1006.45 1006.65 1006.87 1007.10 1007.34 1007.59 1007.85 1008.11 1008.37 1008.63
1008.83 1008.72 1008.63 1008.55 1008.46 1008.36 1008.25 1008.12 1007.96 1007.77 1007.56 1007.33 1007.08 1006.83 1006.57 1006.32 1006.08 1005.86 1005.66 1005.49 1005.35 1005.24 1005.16 1005.10 1005.08 1005.09 1005.12 1005.18 1005.25 1005.36 1005.48 1005.62 1005.78 1005.96 1006.15 1006.36 1006.58 1006.82 1007.07 1007.33 1007.61 1007.89 1008.16
Thickness
5501 5501 5501 5501 5500 5499 5497 5496 5494 5493 5491 5490 5490 5489 5487 5486 5485 5484 5483 5481 5479 5478 5476 5474 5473 5471 5469 5467 5466 5465 5464 5463 5463 5466 5465 5465 5465 5466 5467 5468 5470 5473 5476
5489 5490 5490 5490 5489 5488 5486 5484 5483 5482 5481 5480 5479 5477 5476 5476 5475 5474 5473 5471 5469 5468 5466 5464 5462 5460 5458 5457 5455 5454 5453 5452 5451 5453 5454 5454 5454 5454 5455 5457 5459 5461 5463
5479 5479 5478 5478 5477 5476 5475 5473 5471 5471 5470 5468 5467 5466 5465 5465 5464 5462 5461 5460 5458 5457 5455 5454 5452 5450 5449 5447 5445 5443 5442 5441 5440 5441 5442 5442 5443 5443 5444 5446 5448 5449 5451
5468 5468 5467 5466 5466 5465 5463 5461 5460 5460 5458 5457 5455 5454 5453 5452 5452 5451 5449 5448 5447 5445 5444 5442 5440 5439 5437 5436 5434 5433 5431 5430 5429 5429 5430 5431 5432 5432 5433 5434 5437 5438 5440
5458 5457 5456 5455 5454 5452 5451 5450 5449 5448 5447 5445 5444 5442 5441 5441 5440 5439 5438 5437 5436 5435 5433 5431 5429 5427 5425 5424 5423 5422 5420 5420 5419 5418 5419 5419 5420 5421 5421 5422 5424 5426 5428
5447 5446 5444 5443 5442 5440 5439 5438 5437 5436 5435 5434 5433 5431 5430 5429 5428 5427 5427 5426 5425 5424 5423 5421 5418 5417 5415 5413 5411 5410 5409 5408 5408 5408 5408 5408 5409 5409 5409 5410 5411 5413 5417
5437 5435 5434 5432 5430 5429 5428 5427 5426 5425 5423 5422 5421 5420 5419 5418 5417 5416 5415 5415 5414 5413 5411 5409 5408 5406 5404 5403 5402 5400 5398 5397 5396 5396 5397 5398 5397 5397 5398 5400 5400 5400 5403
5426 5425 5423 5421 5420 5419 5417 5416 5414 5413 5412 5411 5410 5409 5408 5407 5406 5404 5403 5403 5402 5401 5399 5398 5396 5395 5393 5392 5392 5390 5389 5388 5387 5386 5387 5387 5386 5385 5386 5387 5388 5390 5392
5415 5414 5412 5410 5409 5408 5406 5405 5403 5402 5400 5399 5399 5398 5397 5397 5395 5393 5392 5392 5392 5390 5388 5387 5385 5384 5383 5381 5381 5381 5380 5379 5377 5376 5376 5376 5375 5375 5375 5376 5378 5380 5384
5405 5403 5401 5399 5398 5396 5395 5394 5392 5391 5390 5388 5387 5387 5387 5386 5384 5382 5381 5381 5381 5380 5378 5376 5374 5373 5372 5371 5371 5370 5370 5370 5369 5369 5368 5368 5367 5367 5366 5365 5367 5369 5371
5393 5391 5389 5388 5387 5385 5384 5383 5381 5380 5379 5378 5377 5376 5375 5375 5374 5372 5371 5371 5370 5369 5368 5366 5364 5363 5362 5361 5360 5360 5360 5359 5358 5358 5359 5359 5358 5358 5358 5357 5357 5357 5359
5381 5380 5378 5377 5376 5375 5374 5372 5371 5370 5369 5368 5367 5366 5365 5364 5363 5363 5361 5360 5359 5358 5358 5356 5355 5353 5352 5351 5351 5350 5349 5348 5348 5349 5349 5349 5349 5349 5349 5348 5348 5348 5348
5370 5369 5368 5367 5366 5365 5364 5363 5362 5361 5360 5359 5359 5358 5356 5354 5354 5352 5351 5350 5349 5348 5348 5347 5345 5344 5343 5342 5341 5340 5339 5339 5339 5339 5339 5340 5339 5339 5339 5339 5339 5340 5340
5360 5360 5359 5358 5357 5355 5354 5353 5352 5352 5351 5350 5349 5348 5346 5345 5344 5343 5342 5341 5339 5338 5338 5337 5336 5334 5333 5333 5332 5331 5330 5330 5329 5329 5329 5330 5329 5330 5330 5331 5331 5330 5331
5351 5351 5350 5349 5348 5346 5345 5344 5343 5343 5342 5341 5340 5339 5338 5337 5336 5334 5333 5332 5331 5330 5329 5328 5327 5326 5326 5325 5324 5323 5322 5321 5321 5320 5320 5320 5321 5321 5322 5322 5321 5321 5322
5342 5342 5341 5340 5339 5338 5337 5335 5333 5333 5332 5331 5330 5330 5329 5328 5327 5326 5324 5323 5322 5321 5320 5320 5319 5318 5317 5316 5315 5314 5313 5313 5312 5311 5311 5311 5311 5312 5312 5312 5312 5312 5313
5332 5332 5332 5331 5330 5329 5328 5327 5326 5324 5323 5322 5322 5321 5321 5320 5319 5317 5316 5315 5314 5313 5312 5312 5311 5310 5309 5308 5307 5306 5305 5304 5303 5303 5303 5303 5303 5303 5303 5304 5304 5304 5305
5323 5323 5323 5322 5321 5320 5319 5318 5318 5317 5316 5315 5314 5313 5312 5312 5311 5310 5308 5308 5307 5306 5305 5304 5303 5302 5301 5299 5298 5297 5296 5295 5295 5295 5295 5295 5294 5294 5295 5295 5295 5295 5296
5315 5315 5314 5313 5312 5311 5310 5309 5309 5308 5307 5306 5305 5305 5304 5303 5302 5301 5300 5300 5300 5299 5298 5297 5295 5294 5293 5292 5291 5289 5288 5288 5287 5287 5287 5287 5286 5286 5286 5287 5287 5287 5288
5307 5306 5305 5305 5304 5303 5302 5301 5301 5300 5299 5298 5298 5297 5295 5295 5294 5294 5293 5292 5292 5291 5290 5289 5288 5287 5286 5285 5283 5282 5281 5281 5280 5280 5279 5279 5279 5279 5279 5279 5279 5280 5281
5300 5299 5297 5296 5296 5295 5294 5293 5293 5292 5291 5290 5289 5288 5287 5287 5287 5286 5285 5285 5284 5284 5283 5282 5281 5280 5279 5278 5277 5276 5275 5274 5273 5273 5272 5272 5272 5272 5272 5272 5273 5273 5274
5292 5291 5290 5289 5288 5286 5285 5285 5284 5283 5283 5282 5281 5280 5279 5279 5279 5278 5278 5278 5277 5276 5275 5274 5274 5273 5272 5271 5270 5270 5269 5268 5267 5266 5266 5266 5266 5266 5266 5266 5266 5267 5267
5284 5283 5282 5280 5279 5279 5278 5277 5276 5276 5275 5274 5273 5272 5272 5272 5272 5271 5271 5270 5270 5270 5269 5268 5268 5268 5266 5265 5264 5264 5263 5263 5262 5261 5261 5260 5260 5261 5261 5261 5261 5261 5262
5276 5275 5274 5272 5271 5271 5270 5270 5269 5268 5268 5267 5266 5265 5265 5265 5265 5265 5264 5264 5264 5264 5263 5263 5263 5263 5262 5261 5260 5259 5258 5258 5257 5256 5255 5256 5256 5256 5256 5256 5257 5257 5257
5268 5267 5266 5265 5264 5263 5263 5262 5261 5261 5260 5260 5259 5259 5259 5259 5259 5259 5259 5258 5258 5258 5258 5258 5258 5258 5257 5257 5256 5255 5255 5253 5252 5252 5251 5251 5252 5252 5252 5252 5253 5253 5253
5260 5259 5258 5258 5257 5257 5256 5255 5255 5254 5253 5253 5253 5253 5253 5253 5253 5253 5253 5253 5253 5253 5253 5253 5253 5253 5252 5252 5252 5252 5251 5250 5249 5249 5248 5248 5248 5249 5249 5249 5249 5250 5250